This is the latest recevied weather packets stored in our database for station/object N2XGL-1. If no packets are shown the sender has not sent any weather packets the latest 10 day(s).
| Time | Temp. | Humidity | Pressure | Rain* | Wind** | Luminosity | Snow |
|---|---|---|---|---|---|---|---|
| 1777988068 | 1.11° C | 93% | 1009.9 hPa | 0.76 mm | - | - | - |
| 1777987588 | 1.11° C | 93% | 1009.7 hPa | 0.51 mm | - | - | - |
| 1777987058 | 1.11° C | 93% | 1009.4 hPa | 0.25 mm | - | - | - |
| 1777986568 | 1.11° C | 93% | 1009.4 hPa | 0.51 mm | - | - | - |
| 1777986240 | 1.11° C | 93% | 1009.2 hPa | 0.51 mm | - | - | - |
| 1777986033 | 1.11° C | 93% | 1009.2 hPa | 0.51 mm | - | - | - |
| 1777985479 | 1.11° C | 93% | 1009.1 hPa | 0.51 mm | - | - | - |
| 1777984414 | 1.11° C | 92% | 1008.9 hPa | 1.02 mm | - | - | - |
| 1777983838 | 1.11° C | 93% | 1008.8 hPa | 1.27 mm | - | - | - |
| 1777982761 | 1.11° C | 92% | 1008.7 hPa | 1.27 mm | - | - | - |
| 1777982229 | 1.11° C | 92% | 1008.7 hPa | 1.27 mm | - | - | - |
| 1777981229 | 1.11° C | 92% | 1008.4 hPa | 1.27 mm | - | - | - |
| 1777980683 | 1.11° C | 92% | 1008.2 hPa | 1.02 mm | - | - | - |
| 1777980309 | 1.67° C | 91% | 1008.1 hPa | 1.02 mm | - | - | - |
| 1777980148 | 1.67° C | 91% | 1008.1 hPa | 1.02 mm | - | - | - |
| 1777979658 | 1.67° C | 91% | 1007.9 hPa | 1.02 mm | - | - | - |
| 1777978553 | 2.22° C | 91% | 1007.6 hPa | 1.27 mm | - | - | - |
| 1777978038 | 2.78° C | 91% | 1007.6 hPa | 1.27 mm | - | - | - |
| 1777977453 | 2.78° C | 91% | 1007.5 hPa | 1.02 mm | - | - | - |
| 1777976851 | 2.78° C | 91% | 1007.5 hPa | 0.76 mm | - | - | - |
| 1777976269 | 3.33° C | 91% | 1007.5 hPa | 0.76 mm | - | - | - |
| 1777975681 | 3.89° C | 90% | 1007.1 hPa | 0.51 mm | - | - | - |
| 1777975181 | 5° C | 92% | 1006.9 hPa | 0.25 mm | - | - | - |
| 1777974658 | 5° C | 92% | 1006.7 hPa | 0.25 mm | - | - | - |
| 1777974079 | 5° C | 91% | 1006.6 hPa | 0.25 mm | - | - | - |
* Rain latest hour (hover to see other rain measurements)
** Current wind speed in m/s (hover to see current wind gust speed)